STARLINK-4186 (52880 NORAD) Tracking and Keplerian Element Data

This shows tracking and keplerian element data for the satellite.

Feedback or suggestion? Click here.




ElementValue
Catalog52880
NameSTARLINK-4186
Epoch Orbit1304
Epoch Day248.25001157
Epoch Year2022
RAAN10.7667
Inclination53.2173
Eccentricity0.0001598
Argument of Perigee33.4132
Mean Anonmoly20.6356
Mean Motion15.57176684
Decay Rate-0.01061279
L11 52880U 22062BC 22248.25001157 -.01061279 00000+0 -15769-1 0 9990
L22 52880 53.2173 10.7667 0001598 33.4132 20.6356 15.57176684 13042

Live tracking and technical data element details for STARLINK-4186 (NORAD 52880). STARLINK-4186 can be tracked NOW for your location showing map with azimuth and elevation plus other details from your city location.

Track the satellite on the map from your city or location and see movement details for azimuth, elevation, latitude, longitude, range, height, and movement on the map or in text.







IsCatalogInMostPopularTable: catalog: 52880, numindb: 3
Update: records affected: 1



GetName: 52880 STARLINK-4186

Hit Count: updated at: Sun, 25 Sep 2022 07:53:55 GMT